Location: Penum?ka
(16.4840°N, 80.5772°E)
Time: 02:10:46
(UTC+00:00)

DELTA 2 R/B (1) - Pass Details

Date: 19 May 2025
Orbit: 787 x 800 km, 39.6° (Epoch: 24 June)

Event Time Altitude Azimuth Distance (km) Brightness Sun altitude
Exits shadow 22:37:44 32° 277° (W) 1,335 4.3 -20.0°
Maximum altitude 22:39:57 50° 221° (SW) 1,000 3.7 -19.5°
Drops below altitude 10° 22:45:20 10° 147° (SSE) 2,359 6.1 -18.4°
Sets 22:47:53 0° 141° (SE) 3,289 6.9 -17.8°
